Tracking 27107 objects as of 22-Mar-2023
HD Live streaming from Space Station
objects crossing your sky now

STARLINK-3969

Track STARLINK-3969 now!
10-day predictions
STARLINK-3969 is classified as:


NORAD ID: 52551
Int'l Code: 2022-051U
Perigee: 546.1 km
Apogee: 547.7 km
Inclination: 53.2 °
Period: 95.4 minutes
Semi major axis: 6917 km
RCS: Unknown
Launch date: May 13, 2022
Source: United States (US)
Launch site: AIR FORCE WESTERN TEST RANGE (AFWTR)
Your satellite tracking list
Your tracking list is empty




NASA's NSSDC Master Catalog

Two Line Element Set (TLE):
1 52551U 22051U   23080.91947683  .00003854  00000-0  26007-3 0  9996
2 52551  53.2158 314.3504 0001156  81.3544 278.7579 15.08847657 47830
Source of the keplerian elements: AFSPC